Kankakee, IL

8:27 PM CST on December 15, 2019 (GMT -0600)
Greater Kankakee

Weather History for KIKK - October, 2019

Change the Weather History Date:

Thursday, October 17, 2019

  Actual Average Record
Temperature  
Mean Temperature 46 °F -  
Max Temperature 56 °F 63 °F 83 °F (2016)
Min Temperature 35 °F 39 °F 25 °F (1991)
Degree Days  
Heating Degree Days 20    
Moisture  
Dew Point 36 °F    
Average Humidity 75    
Maximum Humidity 96    
Minimum Humidity 48    
Precipitation  
Precipitation 0.00 in - - ()
Sea Level Pressure  
Sea Level Pressure 30.04 in    
Wind  
Wind Speed 6 mph (NW)    
Max Wind Speed 9 mph    
Max Gust Speed -    
Visibility 10 miles    
Events      
Averages and records for this station are not official NWS values.
T = Trace of Precipitation, MM = Missing Value Source: NWS Daily Summary

Daily Weather History Graph

Daily Weather History Graph

Search for Another Location

Airport or City:

Astronomy

Oct. 17, 2019 Rise Set
Actual Time 7:04 AM CDT 6:07 PM CDT
Civil Twilight 6:37 AM CDT 6:35 PM CDT
Nautical Twilight 6:05 AM CDT 7:07 PM CDT
Astronomical Twilight 5:33 AM CDT 7:39 PM CDT
Moon 8:37 PM CDT (10/17) 10:37 AM CDT (10/17)
Length of Visible Light 11h 58m
Length of Day
11h 03m
Waning Gibbous, 86% of the Moon is Illuminated
Oct 17
Waning Gibbous
Oct 21
Last Quarter
Oct 27
New
Nov 4
First Quarter
Nov 12
Full

Hourly Weather History & Observations

Time (CDT) Temp. Windchill Dew Point Humidity Pressure Visibility Wind Dir Wind Speed Gust Speed Precip Events Conditions
12:15 AM 38.5 °F 32.7 °F 34.7 °F 86% 30.03 in 10.0 mi West 8.1 mph - N/A   Clear
12:35 AM 38.3 °F 33.2 °F 34.7 °F 87% 30.03 in 10.0 mi West 6.9 mph - N/A   Clear
12:55 AM 38.3 °F 33.2 °F 34.9 °F 87% 30.03 in 10.0 mi West 6.9 mph - N/A   Clear
1:15 AM 37.6 °F 31.6 °F 34.9 °F 90% 30.03 in 10.0 mi West 8.1 mph - N/A   Clear
1:35 AM 37.2 °F 31.2 °F 35.1 °F 92% 30.04 in 10.0 mi West 8.1 mph - N/A   Scattered Clouds
1:55 AM 37.0 °F 31.6 °F 35.1 °F 93% 30.04 in 10.0 mi West 6.9 mph - N/A   Clear
2:15 AM 36.7 °F 31.2 °F 35.1 °F 94% 30.04 in 10.0 mi West 6.9 mph - N/A   Clear
2:35 AM 36.9 °F 31.4 °F 35.2 °F 94% 30.04 in 10.0 mi West 6.9 mph - N/A   Clear
2:55 AM 36.3 °F 31.6 °F 34.7 °F 94% 30.03 in 10.0 mi West 5.8 mph - N/A   Clear
3:15 AM 35.6 °F 30.7 °F 34.3 °F 95% 30.03 in 10.0 mi West 5.8 mph - N/A   Scattered Clouds
3:35 AM 36.9 °F 32.2 °F 35.8 °F 96% 30.03 in 10.0 mi West 5.8 mph - N/A   Scattered Clouds
3:55 AM 37.4 °F 31.4 °F 35.8 °F 94% 30.04 in 10.0 mi West 8.1 mph - N/A   Clear
4:15 AM 37.9 °F 34.4 °F 36.1 °F 93% 30.03 in 10.0 mi West 4.6 mph - N/A   Clear
4:35 AM 38.5 °F 34.1 °F 36.5 °F 93% 30.04 in 10.0 mi WNW 5.8 mph - N/A   Clear
4:55 AM 38.8 °F 34.6 °F 37.0 °F 93% 30.03 in 10.0 mi West 5.8 mph - N/A   Clear
5:15 AM 39.2 °F 35.9 °F 36.7 °F 91% 30.04 in 10.0 mi WNW 4.6 mph - N/A   Clear
5:35 AM 38.7 °F - 36.7 °F 93% 30.03 in 10.0 mi Calm Calm - N/A   Clear
5:55 AM 38.5 °F 35.0 °F 36.5 °F 93% 30.04 in 10.0 mi WNW 4.6 mph - N/A   Clear
6:15 AM 38.3 °F 34.8 °F 36.5 °F 93% 30.04 in 10.0 mi WNW 4.6 mph - N/A   Clear
6:35 AM 36.9 °F 33.1 °F 35.6 °F 95% 30.04 in 10.0 mi WNW 4.6 mph - N/A   Clear
6:55 AM 35.8 °F 30.9 °F 34.7 °F 96% 30.04 in 10.0 mi West 5.8 mph - N/A   Clear
7:15 AM 36.1 °F 31.4 °F 35.1 °F 96% 30.04 in 10.0 mi West 5.8 mph - N/A   Clear
7:35 AM 35.8 °F 31.9 °F 34.7 °F 96% 30.04 in 10.0 mi West 4.6 mph - N/A   Clear
7:55 AM 37.8 °F 34.2 °F 36.5 °F 95% 30.06 in 10.0 mi West 4.6 mph - N/A   Clear
8:15 AM 39.6 °F 36.3 °F 37.6 °F 93% 30.06 in 10.0 mi WNW 4.6 mph - N/A   Clear
8:35 AM 41.5 °F 37.8 °F 37.9 °F 87% 30.06 in 10.0 mi WNW 5.8 mph - N/A   Clear
8:55 AM 43.3 °F 39.2 °F 37.6 °F 80% 30.07 in 10.0 mi NW 6.9 mph - N/A   Clear
9:15 AM 44.8 °F 41.0 °F 37.4 °F 75% 30.07 in 10.0 mi NW 6.9 mph - N/A   Clear
9:35 AM 46.2 °F 43.3 °F 37.9 °F 73% 30.07 in 10.0 mi WNW 5.8 mph - N/A   Clear
9:55 AM 47.3 °F - 37.6 °F 69% 30.07 in 10.0 mi NW 5.8 mph - N/A   Clear
10:15 AM 48.4 °F - 37.2 °F 65% 30.08 in 10.0 mi WNW 5.8 mph - N/A   Clear
10:35 AM 49.5 °F - 36.3 °F 61% 30.08 in 10.0 mi WNW 5.8 mph - N/A   Clear
10:55 AM 50.7 °F - 36.3 °F 58% 30.08 in 10.0 mi WNW 5.8 mph - N/A   Clear
11:15 AM 51.4 °F - 36.1 °F 56% 30.08 in 10.0 mi NW 5.8 mph - N/A   Clear
11:35 AM 51.6 °F - 35.8 °F 55% 30.07 in 10.0 mi NW 8.1 mph - N/A   Scattered Clouds
11:55 AM 52.9 °F - 36.5 °F 54% 30.07 in 10.0 mi North 5.8 mph - N/A   Scattered Clouds
12:15 PM 52.9 °F - 36.3 °F 53% 30.06 in 10.0 mi NNW 9.2 mph - N/A   Mostly Cloudy
12:35 PM 53.8 °F - 36.0 °F 51% 30.06 in 10.0 mi NNW 3.5 mph - N/A   Mostly Cloudy
12:55 PM 53.2 °F - 35.1 °F 50% 30.05 in 10.0 mi Calm Calm - N/A   Scattered Clouds
1:15 PM 54.7 °F - 36.0 °F 49% 30.04 in 10.0 mi North 5.8 mph - N/A   Mostly Cloudy
1:35 PM 55.0 °F - 36.1 °F 49% 30.04 in 10.0 mi NW 9.2 mph - N/A   Scattered Clouds
1:55 PM 54.9 °F - 36.1 °F 49% 30.04 in 10.0 mi West 5.8 mph - N/A   Mostly Cloudy
2:15 PM 55.2 °F - 36.1 °F 49% 30.03 in 10.0 mi North 5.8 mph - N/A   Mostly Cloudy
2:35 PM 54.1 °F - 36.0 °F 50% 30.02 in 10.0 mi WNW 6.9 mph - N/A   Scattered Clouds
2:55 PM 55.0 °F - 36.0 °F 49% 30.02 in 10.0 mi West 4.6 mph - N/A   Scattered Clouds
3:15 PM 56.5 °F - 37.0 °F 48% 30.02 in 10.0 mi WNW 5.8 mph - N/A   Scattered Clouds
3:35 PM 55.9 °F - 36.7 °F 48% 30.02 in 10.0 mi WNW 5.8 mph - N/A   Mostly Cloudy
3:55 PM 55.8 °F - 36.5 °F 48% 30.02 in 10.0 mi NW 4.6 mph - N/A   Mostly Cloudy
4:15 PM 56.3 °F - 36.7 °F 48% 30.02 in 10.0 mi NNW 6.9 mph - N/A   Mostly Cloudy
4:35 PM 56.1 °F - 37.0 °F 49% 30.02 in 10.0 mi NNW 5.8 mph - N/A   Mostly Cloudy
4:55 PM 55.0 °F - 36.3 °F 49% 30.02 in 10.0 mi NNW 4.6 mph - N/A   Scattered Clouds
5:15 PM 54.5 °F - 36.7 °F 51% 30.02 in 10.0 mi NNW 4.6 mph - N/A   Clear
5:35 PM 53.2 °F - 37.0 °F 54% 30.02 in 10.0 mi NNW 4.6 mph - N/A   Clear
5:55 PM 51.3 °F - 37.6 °F 60% 30.03 in 10.0 mi NNW 4.6 mph - N/A   Clear
6:15 PM 51.1 °F - 36.5 °F 57% 30.03 in 10.0 mi Calm Calm - N/A   Clear
6:35 PM 50.9 °F - 36.3 °F 57% 30.02 in 10.0 mi Calm Calm - N/A   Clear
6:55 PM 46.6 °F - 37.0 °F 69% 30.03 in 10.0 mi ENE 5.8 mph - N/A   Clear
7:15 PM 44.8 °F 43.3 °F 37.9 °F 77% 30.03 in 10.0 mi East 3.5 mph - N/A   Clear
7:35 PM 43.9 °F - 37.8 °F 79% 30.03 in 10.0 mi Calm Calm - N/A   Clear
7:55 PM 43.5 °F 41.9 °F 36.9 °F 77% 30.03 in 10.0 mi East 3.5 mph - N/A   Clear
8:15 PM 43.2 °F - 37.0 °F 79% 30.04 in 10.0 mi Calm Calm - N/A   Clear
8:35 PM 43.0 °F 41.3 °F 37.2 °F 80% 30.04 in 10.0 mi East 3.5 mph - N/A   Clear
8:55 PM 42.3 °F 40.5 °F 36.9 °F 81% 30.05 in 10.0 mi East 3.5 mph - N/A   Clear
9:15 PM 42.1 °F - 36.5 °F 81% 30.06 in 10.0 mi Calm Calm - N/A   Clear
9:35 PM 42.3 °F 39.4 °F 35.8 °F 78% 30.06 in 10.0 mi ESE 4.6 mph - N/A   Clear
9:55 PM 41.9 °F - 35.8 °F 79% 30.06 in 10.0 mi Calm Calm - N/A   Clear
10:15 PM 39.9 °F - 35.8 °F 85% 30.06 in 10.0 mi Calm Calm - N/A   Clear
10:35 PM 39.6 °F 37.4 °F 35.4 °F 85% 30.06 in 10.0 mi SE 3.5 mph - N/A   Clear
10:55 PM 40.1 °F - 35.6 °F 84% 30.06 in 10.0 mi Calm Calm - N/A   Clear
11:15 PM 39.0 °F 36.8 °F 34.7 °F 84% 30.06 in 10.0 mi ESE 3.5 mph - N/A   Clear
11:35 PM 37.9 °F 35.5 °F 34.5 °F 87% 30.07 in 10.0 mi East 3.5 mph - N/A   Clear
11:55 PM 38.5 °F 36.1 °F 34.9 °F 87% 30.06 in 10.0 mi ESE 3.5 mph - N/A   Clear